Gig Harbor, WA

6:22 AM PST on February 23, 2017 (GMT -0800)
Tacoma Narrows

Weather History for KTIW - August, 2014

Change the Weather History Date:

Thursday, August 14, 2014

  Actual Average Record
Temperature  
Mean Temperature 64 °F -  
Max Temperature 71 °F 74 °F 91 °F (2010)
Min Temperature 57 °F 55 °F 35 °F (1997)
Degree Days  
Heating Degree Days 1    
Growing Degree Days 14 (Base 50)    
Moisture  
Dew Point 58 °F    
Average Humidity 89    
Maximum Humidity 100    
Minimum Humidity 66    
Precipitation  
Precipitation 0.00 in - - ()
Sea Level Pressure  
Sea Level Pressure 30.01 in    
Wind  
Wind Speed 2 mph (NNW)    
Max Wind Speed 6 mph    
Max Gust Speed -    
Visibility 6 miles    
Events Fog    
Averages and records for this station are not official NWS values.
T = Trace of Precipitation, MM = Missing Value Source: NWS Daily Summary

Daily Weather History Graph

Daily Weather History Graph

Search for Another Location

Airport or City:

Trip Planner

Search our weather history database for the weather conditions in past years. The results will help you decide how hot, cold, wet, or windy it might be!

Date:

Astronomy

Aug. 14, 2014 Rise Set
Actual Time 6:05 AM PDT 8:23 PM PDT
Civil Twilight 5:31 AM PDT 8:56 PM PDT
Nautical Twilight 4:49 AM PDT 9:38 PM PDT
Astronomical Twilight 4:02 AM PDT 10:26 PM PDT
Moon 10:25 PM PDT (8/14) 11:11 AM PDT (8/14)
Length of Visible Light 15h 24m
Length of Day
14h 17m
Waning Gibbous, 78% of the Moon is Illuminated
Aug 14
Waning Gibbous
Aug 17
Last Quarter
Aug 25
New
Sep 2
First Quarter
Sep 8
Full

Hourly Weather History & Observations

Time (PDT) Temp. Dew Point Humidity Pressure Visibility Wind Dir Wind Speed Gust Speed Precip Events Conditions
12:53 AM 60.1 °F 57.9 °F 93% 30.00 in 10.0 mi WNW 3.5 mph - N/A   Clear
1:53 AM 61.0 °F 59.0 °F 93% 30.00 in 10.0 mi Calm Calm - N/A   Scattered Clouds
2:53 AM 59.0 °F 57.0 °F 93% 30.00 in 6.0 mi West 3.5 mph - N/A   Overcast
3:04 AM 57.9 °F 57.0 °F 97% 30.00 in 6.0 mi Calm Calm - N/A   Mostly Cloudy
3:13 AM 59.0 °F 57.0 °F 93% 30.01 in 5.0 mi Calm Calm - N/A   Mostly Cloudy
3:33 AM 60.1 °F 57.9 °F 93% 30.01 in 10.0 mi Calm Calm - N/A   Overcast
3:41 AM 60.1 °F 59.0 °F 96% 30.01 in 10.0 mi Calm Calm - N/A   Overcast
3:53 AM 60.1 °F 57.9 °F 93% 30.01 in 10.0 mi NW 3.5 mph - N/A   Overcast
4:13 AM 59.0 °F 57.9 °F 96% 30.02 in 2.0 mi NNW 4.6 mph - N/A   Overcast
4:18 AM 59.0 °F 57.9 °F 96% 30.02 in 0.8 mi NW 3.5 mph - N/A   Overcast
4:40 AM 59.0 °F 57.9 °F 96% 30.02 in 2.5 mi Calm Calm - N/A   Overcast
4:43 AM 59.0 °F 59.0 °F 100% 30.02 in 7.0 mi Calm Calm - N/A   Overcast
4:53 AM 59.0 °F 57.9 °F 96% 30.01 in 10.0 mi Calm Calm - N/A   Overcast
5:36 AM 60.1 °F 57.9 °F 93% 30.02 in 10.0 mi Calm Calm - N/A   Overcast
5:44 AM 59.0 °F 57.9 °F 96% 30.02 in 10.0 mi NNW 3.5 mph - N/A   Overcast
5:50 AM 59.0 °F 57.2 °F 94% 30.02 in 1.5 mi NNW 3.5 mph - N/A   Overcast
5:53 AM 59.0 °F 57.9 °F 96% 30.02 in 0.8 mi Calm Calm - N/A   Overcast
6:07 AM 57.9 °F 57.9 °F 100% 30.02 in 0.2 mi Calm Calm - N/A Fog Fog
6:53 AM 57.9 °F 57.9 °F 100% 30.02 in 0.2 mi WNW 3.5 mph - N/A Fog Fog
7:23 AM 59.0 °F 57.9 °F 96% 30.03 in 0.8 mi Calm Calm - N/A   Overcast
7:30 AM 59.0 °F 57.9 °F 96% 30.03 in 1.2 mi NNW 3.5 mph - N/A   Overcast
7:41 AM 59.0 °F 57.9 °F 96% 30.03 in 0.8 mi NW 4.6 mph - N/A   Overcast
7:47 AM 59.0 °F 57.2 °F 94% 30.03 in 2.0 mi WNW 4.6 mph - N/A   Overcast
7:48 AM 59.0 °F 57.9 °F 96% 30.02 in 2.5 mi West 4.6 mph - N/A   Overcast
7:56 AM 59.0 °F 57.9 °F 96% 30.03 in 0.8 mi West 3.5 mph - N/A   Overcast
8:06 AM 59.0 °F 59.0 °F 100% 30.03 in 1.0 mi Calm Calm - N/A   Overcast
8:08 AM 60.1 °F 59.0 °F 96% 30.03 in 0.8 mi Calm Calm - N/A   Overcast
8:42 AM 60.1 °F 59.0 °F 96% 30.03 in 1.0 mi NW 4.6 mph - N/A   Overcast
8:53 AM 61.0 °F 59.0 °F 93% 30.04 in 2.5 mi NNW 5.8 mph - N/A   Overcast
9:19 AM 61.0 °F 59.0 °F 93% 30.04 in 3.0 mi Variable 3.5 mph - N/A   Overcast
9:31 AM 61.0 °F 57.9 °F 90% 30.03 in 3.0 mi Calm Calm - N/A   Overcast
10:53 AM 64.0 °F 59.0 °F 84% 30.02 in 10.0 mi Calm Calm - N/A   Overcast
11:13 AM 64.0 °F 57.9 °F 80% 30.03 in 10.0 mi Calm Calm - N/A   Overcast
11:53 AM 64.9 °F 57.9 °F 78% 30.02 in 10.0 mi Calm Calm - N/A   Overcast
12:53 PM 68.0 °F 59.0 °F 73% 30.01 in 10.0 mi SE 4.6 mph - N/A   Overcast
1:53 PM 66.9 °F 57.9 °F 73% 30.00 in 10.0 mi SE 5.8 mph - N/A   Overcast
2:53 PM 71.1 °F 59.0 °F 66% 30.00 in 10.0 mi West 4.6 mph - N/A   Overcast
3:53 PM 69.1 °F 59.0 °F 70% 29.99 in 10.0 mi Calm Calm - N/A   Overcast
4:53 PM 68.0 °F 60.1 °F 76% 29.99 in 10.0 mi NE 4.6 mph - 0.00 in   Overcast
5:53 PM 69.1 °F 59.0 °F 70% 29.98 in 10.0 mi NE 3.5 mph - N/A   Overcast
6:53 PM 68.0 °F 59.0 °F 73% 29.98 in 10.0 mi Calm Calm - N/A   Mostly Cloudy
7:53 PM 66.9 °F 59.0 °F 76% 29.98 in 10.0 mi ENE 3.5 mph - N/A   Scattered Clouds
8:53 PM 66.0 °F 57.9 °F 75% 29.99 in 10.0 mi NE 3.5 mph - N/A   Overcast
9:53 PM 64.9 °F 57.9 °F 78% 29.98 in 10.0 mi NNE 3.5 mph - N/A   Overcast
10:53 PM 64.9 °F 57.9 °F 78% 29.98 in 10.0 mi Calm Calm - N/A   Overcast
11:53 PM 66.0 °F 57.9 °F 75% 29.97 in 10.0 mi Calm Calm - N/A   Overcast